Orbital elements:
2013 WT44                                           PHA, Earth MOID = 0.0329 AU
Epoch 2019 Apr. 27.0 TT = JDT 2458600.5                 MPC
M 187.98457              (2000.0)            P               Q
n   0.29024846     Peri.  325.81349     -0.85245996     -0.52269527
a   2.2592074      Node   182.73322     +0.51436274     -0.83510879
e   0.5682368      Incl.   12.20757     +0.09350395     -0.17141460
P   3.40           H   19.3           G   0.15           U   0
Residuals in seconds of arc
131127 703  0.3+  0.5-    140317 K93  0.0   0.1-    140330 160  0.1+  0.1-
131127 703 (1.8+  0.3-)   140317 K93  0.1+  0.0     140330 160  0.0   0.0
131127 703  0.5+  0.4-    140317 K93  0.1+  0.2+    140331 K90  0.2-  0.2-
131127 E23 (0.1+  1.7+)   140317 K93  0.0   0.0     140331 K90  0.8-  0.9-
131127 E23 (0.0   1.7+)   140317 K93  0.1+  0.1+    140331 K90  0.2-  0.2-
131127 E23  0.6+  0.3+    140318 K93  0.0   0.0     140331 K90  0.1+  0.2+
131128 807  0.2-  0.1+    140318 K93  0.0   0.1+    140331 K90  0.5-  0.3-
131128 807  0.1-  0.1+    140318 K93  0.0   0.1+    140331 K90  0.2-  0.1-
131128 807  0.2-  0.2+    140318 K93  0.1+  0.1-    140331 K90  0.3+  0.2+
131128 807  0.2-  0.3+    140318 K93  0.2+  0.0     140401 703  0.2+  0.1-
131128 807  0.3-  0.2+    140318 K93  0.1+  0.1+    140401 703  0.3+  0.1-
131129 807  0.2-  0.0     140318 K93  0.1+  0.1+    140401 703  0.3+  0.1-
131129 807  0.2-  0.1+    140318 K93  0.1+  0.1+    140401 703  0.2+  0.1-
131129 807  0.3-  0.1+    140318 K93  0.1+  0.1+    140401 D29  0.1-  0.4+
131129 807  0.2-  0.0     140318 K93  0.1+  0.0     140401 D29  0.1+  0.5+
131129 807  0.3-  0.0     140318 K93  0.1+  0.1+    140401 D29  0.1-  0.3+
131129 H01  0.1-  0.2+    140318 K93  0.0   0.1+    140401 168  0.3-  0.2-
131129 H01  0.1-  0.1+    140318 K93  0.1-  0.0     140401 168  0.2-  0.3-
131129 H01  0.2-  0.1+    140318 K93  0.1+  0.0     140401 168  0.3-  0.1-
131130 807  0.3-  0.5+    140318 K93  0.1+  0.0     140401 168  0.2-  0.2-
131130 807  0.0   0.0     140318 K93  0.1+  0.1+    140401 L04  0.1+  0.1-
131130 807  0.0   0.1-    140318 K93  0.0   0.0     140401 L04  0.0   0.1+
131130 807  0.2-  0.1-    140318 K93  0.0   0.2+    140401 L04  0.1+  0.1-
131130 807  0.2-  0.1-    140318 K93  0.1+  0.0     140401 L04  0.1-  0.2-
131201 807  0.1+  0.1-    140318 K93  0.1+  0.1+    140401 K90  0.1-  0.1+
131201 807  0.1+  0.1+    140318 K93  0.0   0.0     140401 K90  0.4-  0.3-
131201 807  0.0   0.1+    140318 K93  0.2+  0.2+    140402 K90  0.0   0.0
131201 807  0.1+  0.1+    140318 K93  0.1-  0.2-    140402 K90  0.0   0.1+
131201 807  0.0   0.2+    140318 K93  0.1+  0.1-    140402 K90  0.3+  0.3+
131202 807  0.1+  0.1+    140318 K93  0.0   0.1-    140402 Q62  0.3+  0.2+
131202 807  0.1+  0.1+    140318 K93  0.0   0.1-    140402 Q62  0.2+  0.0
131202 807  0.2+  0.0     140318 K93  0.1-  0.0     140402 Q62  0.1+  0.0
131202 807  0.1+  0.1-    140320 I47  0.6-  0.5+    140402 K90  0.2+  0.1+
131202 807  0.1+  0.1-    140320 I47  0.1-  0.5+    140403 K90  0.2+  0.2+
131204 807  0.4+  0.9-    140320 I47  0.1-  0.6-    140403 K90  0.2-  0.0
131204 807  0.0   0.6-    140320 I47  0.4-  0.5-    140403 168  0.1-  0.1-
131204 807  0.5+  0.8-    140320 I47  0.0   0.4-    140403 168  0.2-  0.2-
131206 807  0.1+  0.1-    140320 I47  0.2-  0.4-    140403 168  0.2-  0.3-
131206 807  0.1+  0.1+    140320 A92 (2.3+  0.5+)   140403 461  0.1+  0.1+
131206 807  0.1-  0.2+    140320 A92 (0.0   3.3+)   140403 461  0.2+  0.2+
131206 807  0.0   0.1+    140320 A92 (1.7+  1.3+)   140403 461  0.0   0.4+
131206 807  0.2-  0.1-    140320 A92 (2.8+  2.0+)   140403 461  0.2+  0.2+
131206 695  0.3-  0.1+    140320 A92 (3.7+  2.9+)   140403 461  0.0   0.0
131206 695  0.2-  0.1+    140320 A92 (1.7+  1.1+)   140403 461  0.0   0.2+
131206 695  0.2-  0.2+    140320 A92  1.3+  1.0+    140403 461  0.2+  0.3+
131206 695  0.3-  0.2+    140320 A92 (2.6+  1.0+)   140403 461  0.0   0.2+
131206 F51  0.0   0.1+    140321 H45  0.2-  0.3-    140403 461  0.0   0.1+
131206 F51  0.1-  0.1+    140321 H45  0.1+  0.0     140403 461  0.1-  0.2+
131207 703  0.9-  0.3+    140321 H45  0.1-  0.1-    140403 K90  0.0   0.2+
131207 703  1.2+  0.1+    140321 H45  0.2-  0.1-    140403 K90  0.1+  0.3+
131207 703 (1.6+  1.2+)   140321 H45  0.3+  0.1+    140403 K90  0.0   0.1+
131209 807  0.2+  0.2-    140321 H45  0.0   0.1+    140404 K90  0.4-  0.6-
131209 807  0.4+  0.1-    140321 H45  0.0   0.1-    140404 K90  0.7-  0.5-
131209 807  0.1-  0.1-    140321 H45  0.2-  0.1-    140404 703  0.1-  0.2+
131209 807  0.2-  0.2-    140321 H45  0.0   0.2-    140404 703  0.1-  0.3+
131209 807  0.0   0.2+    140321 H45  0.0   0.0     140404 703  0.1-  0.1+
131214 807  0.0   0.3-    140321 H45  0.2-  0.1+    140404 703  0.2-  0.2+
131214 807  0.0   0.1-    140321 H45  0.4-  0.3-    140406 300  0.0   0.1-
131214 807  0.1+  0.1-    140322 Q79  0.2-  0.4-    140406 300  0.4-  0.2+
131221 807  0.0   0.1-    140322 Q79  0.2-  0.1-    140406 300  0.4-  0.6+
131221 807  0.1-  0.0     140322 Q79  0.2-  0.4-    140406 300  0.3-  0.7+
131221 807  0.2-  0.0     140324 G48  0.3-  0.2+    140406 300  0.3+  0.1-
131221 807  0.0   0.1-    140324 G48  0.5-  0.3+    140406 300  0.7+  0.0
131221 807  0.1-  0.2-    140324 G48  0.2-  0.2+    140406 300  0.0   0.6+
131221 807  0.1-  0.2-    140324 G48  0.3-  0.3+    140406 300  0.1+  0.5+
131222 F51  0.2+  0.3-    140324 G48  0.2-  0.3+    140407 C47  0.2+  0.0
131222 F51  0.1-  0.5-    140324 G48  0.2-  0.4+    140407 C47  0.2+  0.0
131222 568  0.1+  0.0     140325 089  0.1-  0.3+    140407 C47  0.1+  0.0
131222 568  0.1+  0.0     140325 089  0.2+  0.2+    140407 C47  0.2+  0.1-
131226 I36  0.3+  0.1-    140325 089  0.2-  0.1+    140407 C47  0.2+  0.0
131226 I36  0.1+  0.1-    140325 089  0.0   0.0     140409 H45  0.1+  0.0
131226 I36  0.1-  0.5-    140325 089  0.1-  0.1+    140409 H45  0.2+  0.1+
131226 F51  0.0   0.1+    140325 089  0.2-  0.4+    140409 H45  0.0   0.1+
131226 F51  0.0   0.1+    140325 089  0.1+  0.2+    140409 H45  0.0   0.1+
131227 474  0.1-  0.1-    140325 089  0.2-  0.1+    140409 H45  0.0   0.1+
131227 474  0.2-  0.0     140325 089  0.1-  0.1+    140409 H45  0.1+  0.1+
131227 474  0.3-  0.1-    140325 718  0.3+  0.1-    140409 H45  0.1+  0.1+
131227 474  0.3-  0.1+    140325 718  0.4+  0.2-    140409 H45  0.2+  0.2+
131231 703  1.4+  0.6+    140325 718  0.0   0.3-    140410 H45  0.1-  0.2-
131231 703  1.2+  1.3+    140325 C47  0.2-  0.0     140410 H45  0.1+  0.1-
131231 703  0.2+  0.6-    140325 C47  0.1+  0.0     140410 H45  0.2+  0.1-
131231 703  0.6+  0.3+    140325 C47  0.3-  0.2-    140410 H45  0.0   0.0
140111 F51  0.0   0.1+    140325 C47  0.3-  0.0     140410 H45  0.1+  0.1-
140111 F51  0.0   0.1+    140325 C47  0.2-  0.3-    140410 H45  0.1+  0.0
140111 F51  0.0   0.2+    140325 C47  0.4-  0.4-    140410 168  0.1-  0.3-
140111 F51  0.0   0.1+    140326 H45  0.2+  0.1-    140410 168  0.2-  0.2-
140112 807  0.0   0.1+    140326 H45  0.3+  0.0     140410 168  0.1-  0.0
140112 807  0.2-  0.6+    140326 H45  0.1+  0.1-    140410 168  0.1-  0.2-
140112 807  0.2-  0.4+    140326 H45  0.2+  0.1-    140413 160  0.2+  0.5+
140112 807  0.2+  0.5+    140326 H45  0.3+  0.0     140413 160  0.8-  0.4-
140112 807  0.0   0.1+    140326 H45  0.1+  0.1-    140413 160  0.0   0.6-
140116 F51  0.2-  0.1+    140326 H45  0.1+  0.0     140416 B88  0.3+  0.1-
140116 F51  0.2-  0.1-    140326 H45  0.2+  0.1-    140416 B88  0.2-  0.3-
140116 F51  0.2-  0.0     140326 H45  0.2+  0.0     140416 B88  0.1+  0.2-
140116 F51  0.2-  0.1+    140326 H45  0.1+  0.1-    140416 H21  0.2+  0.1+
140116 F51  0.1-  0.1+    140327 C77  0.1+  0.1-    140416 H21  0.0   0.0
140116 F51  0.1-  0.1-    140327 C77  0.2-  0.1+    140416 H21  0.0   0.0
140116 F51  0.2-  0.0     140327 C77  0.1-  0.3-    140416 H21  0.2+  0.1+
140116 F51  0.1-  0.1+    140327 C77  0.1+  0.2-    140416 H21  0.1+  0.2+
140117 F51  0.2-  0.1-    140327 C77  0.1-  0.3-    140416 H21  0.4+  0.2+
140117 F51  0.0   0.2+    140327 C77  0.3-  0.0     140416 K38  0.1-  0.3-
140117 F51  0.1-  0.1+    140327 C77  0.3-  0.0     140416 K38  0.1-  0.0
140117 F51  0.1-  0.2+    140328 C36  0.2-  0.2+    140416 K38  0.1+  0.1-
140117 F51  0.2-  0.0     140328 C36  0.1-  0.1-    140417 160  0.0   0.1-
140117 F51  0.1-  0.1+    140328 C36  0.0   0.0     140417 160  0.3+  0.6+
140118 F51  0.2-  0.1-    140328 C36  0.0   0.2-    140417 160  0.8+  0.6+
140118 F51  0.1-  0.2-    140328 C36  0.1+  0.1-    140417 H21  0.0   0.1+
140118 F51  0.1-  0.1-    140328 C36  0.1-  0.3+    140417 H21  0.2+  0.1+
140118 F51  0.1-  0.1+    140328 C36  0.1-  0.2-    140417 H21  0.2+  0.1+
140118 F51  0.3-  0.0     140328 C36  0.0   0.3-    140417 H21  0.1+  0.0
140119 F51  0.1-  0.0     140328 C36  0.0   0.0     140417 H21  0.1+  0.0
140119 F51  0.1-  0.1+    140328 C36  0.2+  0.1-    140417 H21  0.3+  0.2+
140119 F51  0.1-  0.1+    140328 C36  0.0   0.0     140417 H21  0.4+  0.1+
140119 F51  0.1-  0.1+    140328 C36  0.1-  0.1+    140418 160  0.1-  0.1-
140119 F51  0.1-  0.0     140328 C36  0.2-  0.0     140418 160  0.3-  0.1+
140120 F51  0.1-  0.1-    140328 C36  0.1+  0.0     140418 160  0.7+  1.0+
140120 F51  0.1-  0.0     140328 C36  0.1-  0.1-    140422 A24  0.8+  0.1+
140120 F51  0.1-  0.0     140328 C36  0.1+  0.0     140422 A24  0.8+  0.1+
140120 F51  0.1-  0.0     140328 204  0.4+  0.4+    140423 A24  0.2-  0.3+
140120 F51  0.1-  0.0     140328 204  0.4+  0.4+    140423 A24  0.5-  0.2+
140120 F51  0.1-  0.0     140328 204  0.4+  0.4+    140423 H45  0.2+  0.1+
140120 F51  0.1-  0.0     140328 204  0.4+  0.4+    140423 H45  0.2+  0.1-
140120 F51  0.1-  0.0     140328 204  0.5+  0.4+    140423 H45  0.2+  0.2-
140124 F51  0.0   0.0     140328 151  0.1-  0.2-    140423 H45  0.1+  0.1-
140124 F51  0.0   0.0     140328 151  0.1-  0.1-    140423 H45  0.0   0.1-
140124 F51  0.0   0.0     140328 151  0.3-  0.1-    140423 H45  0.1+  0.1-
140124 F51  0.0   0.0     140328 151  0.0   0.1-    140423 A24  0.1+  0.3-
140124 F51  0.0   0.0     140328 151  0.2-  0.2-    140423 A24  0.3+  0.0
140126 F51  0.2-  0.0     140328 151  0.1-  0.2-    140424 A24  0.1+  0.5+
140126 F51  0.0   0.1-    140328 151  0.1-  0.3-    140424 A24  0.2-  0.4+
140126 F51  0.1-  0.1-    140328 G34  0.0   0.1+    140425 H45  0.0   0.1+
140126 F51  0.0   0.1-    140328 G34  0.5+  0.3+    140425 H45  0.1+  0.1-
140126 F51  0.1-  0.1-    140328 G34 (2.2+  0.8+)   140425 H45  0.2+  0.1-
140127 C51  0.2+  0.1-    140328 G34  0.4-  0.6-    140425 H45  0.0   0.2+
140127 C51  0.5+  0.2-    140329 130  0.0   0.1-    140425 H45  0.1-  0.3+
140127 C51  0.3+  0.0     140329 130  0.1+  0.0     140501 300  0.1+  0.1-
140128 C51  0.5+  0.1-    140329 130  0.1+  0.2-    140501 300  0.1+  0.2-
140128 C51  0.4+  0.5-    140329 130  0.1+  0.0     140501 300  0.2-  0.2+
140128 C51  0.4+  0.2-    140329 160  0.0   0.1-    140501 300  0.0   0.2-
140207 807  0.1-  0.2-    140329 160  0.0   0.2-    140501 300  0.5+  0.8-
140207 807  0.1-  0.2-    140329 160  0.2-  0.3-    140501 300  0.5+  0.0
140207 807  0.1+  0.2-    140329 A98  0.2+  0.3-    140502 H45  0.2+  0.1-
140219 807  0.1-  0.1-    140329 A98  0.1-  0.2-    140502 H45  0.0   0.3-
140219 807  0.0   0.1-    140329 A98  0.3+  0.4+    140502 H45  0.0   0.3-
140219 807  0.0   0.1-    140329 A98  0.5+  0.4-    140504 H45  0.1-  0.2+
140303 D90  0.1+  0.0     140329 K90  1.0+  0.8+    140504 H45  0.0   0.1-
140303 D90  0.1+  0.1-    140329 204  0.1-  0.0     140504 H45  0.2+  0.2-
140303 D90  0.2+  0.2-    140329 204  0.3-  0.1-    140504 H45  0.4+  0.3-
140311 807  0.0   0.1-    140329 204  0.7-  0.0     140504 H45  0.4+  0.3-
140312 807  0.0   0.1-    140329 204  0.2-  0.4-    140504 A53  0.7-  0.0
140312 807  0.0   0.0     140329 204  0.2-  0.1+    140504 A53  0.5+  1.0+
140312 807  0.2+  0.1-    140329 K90  0.9+  1.1+    140504 A53  0.0   0.0
140312 807  0.1+  0.0     140329 K90  0.4+  1.0+    140505 703  0.4-  0.0
140315 Q79  0.3+  0.3-    140329 K90  0.5-  0.6-    140505 703  0.1+  0.8+
140315 Q79  0.2+  0.2+    140330 160  0.2-  0.3-    140505 703  0.9+  0.5+
140315 Q79  0.0   0.5-    140330 160  0.1+  0.2-    140505 703  0.6-  0.1+
140317 K92  0.4-  0.2-    140330 160  0.5-  0.1-    140518 H21  0.2+  0.3+
140317 K92  0.1+  0.0     140330 K90  1.1-  0.7-    140518 H21  0.2+  0.1+
140317 K92  0.1+  0.1-    140330 C47  0.3+  0.0     140518 H21  0.2+  0.3+
140317 K92  0.3-  0.0     140330 C47  0.1+  0.1+    140520 G96  0.3+  0.1+
140317 K92  0.2+  0.0     140330 C47  0.2-  0.1+    140520 G96  0.1+  0.2+
140317 K92  0.3-  0.1-    140330 C47  0.1+  0.0     140520 G96  0.0   0.0
140317 K92  0.2+  0.0     140330 C47  0.2-  0.0     140520 G96  0.9-  0.1+
140317 K92  0.2-  0.1+    140330 C47  0.0   0.0     140520 A13  0.2+  0.1-
140317 K92  0.1+  0.1+    140330 K90  0.7-  0.7-    140520 A13  0.2+  0.0
140317 K92  0.1+  0.1+    140330 K90  0.9-  0.9-    160926 F51  0.0   0.5-
140317 K92  0.4-  0.1+    140330 L04  0.1+  0.0     160926 F51  0.3+  0.6+
140317 K92  0.3+  0.1+    140330 L04  0.1-  0.2+    160926 F51  0.4+  0.1+
140317 K92  0.0   0.2+    140330 L04  0.2+  0.2-    160930 F51  0.1-  0.1-
140317 K92  0.0   0.3+    140330 L04  0.0   0.0     160930 F51  0.2-  0.1+
140317 K93  0.1-  0.0     140330 K90  0.4+  0.6+    160930 F51  0.1+  0.2-
140317 K93  0.1+  0.0     140330 K90  0.1-  0.1-    160930 F51  0.1-  0.0
140317 K93  0.1+  0.1+    140330 160  0.1-  0.3-

